Other Public Products
Issued by NWS Grand Forks, ND

Home | Current Version | Previous Version | Text Only | Print | Product List | Glossary Off
Versions: 1 2 3 4 5 6 7 8 9 10 11 12 13 14 15 16 17 18 19 20 21 22 23 24 25 26 27 28 29 30 31 32 33 34 35 36 37 38 39 40 41 42 43 44 45 46 47 48 49 50

000
FPUS83 KFGF 301431
OPUFGF
PRAIRIE TO PINES WEATHER ROUNDUP
NATIONAL WEATHER SERVICE EASTERN NORTH DAKOTA/GRAND FORKS ND
900 AM CDT SAT MAY 30 2015

 **SATELLITE DATA USED TO AUGMENT SKY COVER AT AUTOMATED STATIONS**
 *****  WEATHER ACROSS EASTERN NORTH DAKOTA  *****

CITY           SKY/WX    TMP DP  RH WIND       PRES   REMARKS
GRAND FORKS    MOSUNNY   41  26  55 N18       30.42R
GRAND FORKS AF SUNNY     41  25  54 NE13      30.42R
GRAND CITY NWS   N/A     39 N/A N/A NE14        N/A
BUXTON           N/A     40  29  64 N16         N/A
DEVILS LAKE    SUNNY     39  21  48 NE13      30.41F
FARGO          SUNNY     41  30  65 N15       30.38R
WAHPETON ARPT  SUNNY     43  34  70 N12       30.36S
$$

 *****  WEATHER ACROSS CENTRAL AND WESTERN NORTH DAKOTA  *****

CITY           SKY/WX    TMP DP  RH WIND       PRES   REMARKS
JAMESTOWN      SUNNY     40  27  59 NE12      30.40R
BISMARCK       MOSUNNY   42  29  59 E10       30.42R
MINOT          PTSUNNY   40  29  64 SE14      30.40S
MINOT AFB      PTSUNNY   42  35  77 SE13      30.40S
GARRISON         N/A     42  30  62 SE15      30.39R
WILLISTON      MOSUNNY   45  34  65 SE13      30.33S
DICKINSON      SUNNY     44  35  70 SE16      30.30F
HETTINGER      SUNNY     43  37  79 E15       30.33R
$$

 *****  OTHER OBSERVATIONS NORTHEAST NORTH DAKOTA  *****

CITY           SKY/WX    TMP DP  RH WIND       PRES   REMARKS
WALHALLA         N/A     39  25  56 MISG      30.45S
LANGDON        FAIR      39  25  56 NE15      30.42F
CAVALIER       FAIR      39  27  60 NE12      30.44S
GRAFTON        FAIR      39  28  65 N13       30.44S
CANDO          FAIR      39  23  52 E9G16     30.44S
FORT TOTTEN      N/A     41  24  50 NE7       29.95
ROLLA          FAIR      36  25  64 E10       30.44S
RUGBY          NOT AVBL
 ***** THE ABOVE OBSERVATIONS ARE NON NWS ARE NOT QUALITY
        CONTROLLED AND MAY MIS-REPORT RAIN FOR SNOW...
$$

 *****  OTHER OBSERVATIONS SOUTHEAST NORTH DAKOTA *****

CITY           SKY/WX    TMP DP  RH WIND       PRES   REMARKS
COOPERSTOWN    NOT AVBL
VALLEY CITY    FAIR      39  28  65 NE13      30.39S
OAKES            N/A     39  32  75 N17       30.39R
GWINNER        NOT AVBL
BUFFALO        NOT AVBL
WYNDMERE         N/A     39  34  81 N10         N/A
 ***** THE ABOVE OBSERVATIONS ARE NON NWS ARE NOT QUALITY
       CONTROLLED AND MAY MIS-REPORT RAIN FOR SNOW...
$$

  *****  WEATHER ACROSS NORTHERN MINNESOTA  *****

CITY           SKY/WX    TMP DP  RH WIND       PRES   REMARKS
FLAG ISLAND    MOSUNNY   37  27  65 N10       30.38S
WARROAD        PTSUNNY   39  28  65 N12       30.39S
ROSEAU         SUNNY     39  28  65 NE9       30.40S
HALLOCK        SUNNY     41  27  56 NE12      30.43S
THF RVR FALLS  SUNNY     39  27  60 NE10      30.39S
HALSTAD          N/A     43  25  49 N17         N/A
FOSSTON        MOSUNNY   37  34  87 NE8G17    30.36S
BAUDETTE       CLOUDY    41  29  62 N14       30.37R
WASKISH        MOSUNNY   39  28  65 NE10G17   30.36S
CROOKSTON      SUNNY     39  27  60 NE12      30.41S
$$
  *****  WEATHER ACROSS CENTRAL AND WEST MINNESOTA  *****

CITY           SKY/WX    TMP DP  RH WIND       PRES   REMARKS
BEMIDJI        MOSUNNY   40  31  68 NE9       30.33R
PARK RAPIDS    MOSUNNY   43  31  62 N10       30.31R
WADENA         MOSUNNY   41  34  75 N10       30.31R
DETROIT LAKES  MOSUNNY   41  32  70 N6        30.34S
MOORHEAD       SUNNY     39  32  75 N10       30.38S
FERGUS FALLS   SUNNY     45  36  70 N8        30.35R
ELBOW LAKE     CLOUDY    44  38  77 N7        30.33R
MORRIS MN      SUNNY     48  39  71 N10       30.31R
STAPLES        MOSUNNY   45  34  65 N8        30.30S
WHEATON        SUNNY     41  34  75 N10G17    30.37R
$$
  *****  WEATHER ELSEWHERE ACROSS MINNESOTA  *****

CITY           SKY/WX    TMP DP  RH WIND       PRES   REMARKS
DULUTH         MOSUNNY   45  34  65 N15       30.25R
INTRNTL FALLS  MOSUNNY   39  26  59 N12       30.35S
ELY            NOT AVBL
CLOQUET        SUNNY     46  34  61 N9G16     30.26R
BRAINERD       SUNNY     44  32  62 N16       30.28F
HIBBING        MOSUNNY   41  31  67 N14       30.30R
ALEXANDRIA     MOSUNNY   45  36  70 N14       30.31R
SAINT CLOUD    MOSUNNY   47  37  68 N13       30.26S
MINNEAPOLIS    PTSUNNY   50  39  66 N16G25    30.21R
$$

  *****  WEATHER ACROSS SOUTH DAKOTA  *****

CITY           SKY/WX    TMP DP  RH WIND       PRES   REMARKS
SIOUX FALLS    MOSUNNY   47  39  74 N14G21    30.27R
BROOKINGS      SUNNY     45  37  76 N14       30.30S
WATERTOWN      SUNNY     43  35  73 N12       30.30R
HURON          SUNNY     44  34  67 N14       30.34R
SISSETON         N/A     42  36  79 N13       30.35R
ABERDEEN       SUNNY     43  31  62 NE13      30.39R
MITCHELL       SUNNY     47  38  71 N14       30.33R
PIERRE         SUNNY     44  36  73 E10       30.36R
MOBRIDGE       SUNNY     43  33  68 E10       30.37S
RAPID CITY     SUNNY     46  40  79 S16       30.30F
$$

  *****  SOME WEATHER IN NEARBY STATES *****

CITY           SKY/WX    TMP DP  RH WIND       PRES   REMARKS
GLASGOW MT     MOSUNNY   50  37  61 E22       30.17F
GREAT FALLS MT MOSUNNY   57  47  69 S5        30.00F
CHEYENNE WY    SUNNY     49  44  83 SW9       30.29S
SCOTTSBLUFF NE CLOUDY    50  46  86 E9        30.29S
OMAHA NE       CLOUDY    53  48  83 N16G24    30.16R
DES MOINES IA  CLOUDY    58  53  84 N10       30.08R
DAVENPORT IA   CLOUDY    68  63  84 S5        29.97R
CHICAGO IL     CLOUDY    67  64  90 SW3       29.98R
EAU CLAIRE WI  CLOUDY    52  44  74 N13G20    30.14R
LA CROSSE WI   CLOUDY    57  51  80 N9        30.10R
$$

  *****  SOME NATIONAL WEATHER *****

CITY           SKY/WX    TMP DP  RH WIND       PRES   REMARKS
LA GUARDIA NY  MOSUNNY   77  63  61 S9        30.20F
RALEIGH NC     PTSUNNY   78  68  71 SW3       30.24S
ATLANTA GA     MOSUNNY   74  65  73 S6        30.19S
NEW ORLEANS LA PTSUNNY   81  70  69 S3        30.08R
OKLAHOMA CITY  CLOUDY    61  54  77 N21G29    30.13R
ALBUQUERQUE NM MOSUNNY   63  47  55 E16       30.29R
SALT LAKE CITY PTSUNNY   64  46  52 S12       30.10S
LOS ANGELES CA CLOUDY    59  57  93 W5        29.94R FOG
BOISE ID       CLOUDY    66  46  48 NW7       29.92R
SEATTLE WA     CLOUDY    51  46  83 SW8       29.97S
$$

*** WEATHER ACROSS MANITOBA...SASKATCHEWAN AND ONTARIO ***
                ***ONTARIO***

CITY           SKY/WX    TMP DP  RH WIND       PRES   REMARKS
GERALDTON      PTSUNNY   36  30  80 NW14G24   30.21R
THUNDER BAY    MOSUNNY   41  28  60 NW12G25   30.27R
SIOUX LOOKOUT  MOSUNNY   36  19  51 N9        30.35R
TORONTO        MOSUNNY   81  66  61 SW14G21   29.95F
BIG TROUT LK   CLOUDY    28  25  86 N10G17    30.34  WCI  19
PICKLE LAKE    CLOUDY    30  23  74 VRB8G21   30.31R WCI  23
DRYDEN         PTSUNNY   36  23  60 N9        30.35R
KENORA         MOSUNNY   37  21  52 N10G17    30.38R
$$
                *** MANITOBA***

CITY           SKY/WX    TMP DP  RH WIND       PRES   REMARKS
BRANDON        PTSUNNY   39  27  60 SE8       30.45S
DAUPHIN        CLOUDY    41  30  65 VRB2      30.46S
ISLAND LAKE    CLOUDY    32  23  69 NW7       30.43S
PILOT MOUND      N/A     37  23  56 NE8         N/A
THE PAS        MOSUNNY   43  21  42 SW12      30.42S
THOMPSON       MOSUNNY   41  23  48 W9        30.36F
WINNIPEG       MOSUNNY   39  25  56 VRB9      30.46S
LYNN LAKE      SUNNY     46  25  42 W14G20    30.28F
CHURCHILL      PTSUNNY   39  23  52 SW10      30.22F
$$
                ***SASKATCHEWAN***

CITY           SKY/WX    TMP DP  RH WIND       PRES   REMARKS
ESTEVAN        CLOUDY    43  30  61 SE14G21   30.37S
KINDERSLEY     CLOUDY    46  27  46 E22G29    30.17F
LLOYDMINSTER   PTSUNNY   50  27  40 S15       30.20S
PRINCE ALBERT  PTSUNNY   46  32  57 S8        30.34S
REGINA         PTSUNNY   43  30  61 SE22      30.33F
YORKTON        SUNNY     41  27  56 SE13      30.40F
N. BATTLEFORD  SUNNY     46  28  49 SE13G18   30.28S


USA.gov is the U.S. government's official web portal to all federal, state and local government web resources and services.